Theta_e
306 306 306 306 306 306 306 306 307 307 308 307 307 307 307 307 307 317 316 315 314 307 306 307 306 305 304 307 304 304 304 303 300 292 289 292 289 294 292 293 291 290 290 287 287 283 282 297 297 291 298 299 297 297
305 306 305 305 305 305 306 306 306 306 307 307 307 307 307 307 307 311 317 314 314 313 309 312 313 311 311 310 307 306 304 304 306 298 293 291 287 287 292 289 296 290 294 292 291 293 300 302 299 301 299 297 299 297
304 304 305 304 304 305 305 305 305 306 306 306 306 307 307 307 307 311 317 315 315 308 309 311 309 312 315 313 316 308 306 306 305 306 302 294 288 297 287 291 294 297 299 294 294 297 299 302 303 303 301 298 297 297
303 303 303 304 304 304 304 305 305 305 305 305 306 306 306 307 307 309 316 312 313 304 290 305 307 308 312 315 315 314 310 307 307 308 292 289 291 301 292 298 296 299 299 295 295 299 300 300 301 300 299 297 296 297
302 302 302 303 303 304 304 304 304 304 304 303 305 305 306 307 307 315 317 315 315 313 298 304 306 307 309 313 313 313 311 309 304 296 289 292 300 298 296 294 295 301 298 293 291 298 299 297 298 300 298 296 295 293
302 302 302 302 302 303 303 303 304 304 304 305 305 306 307 306 307 318 312 315 315 316 305 296 306 303 306 309 311 310 311 309 308 300 294 300 304 302 288 288 297 302 303 302 298 298 298 298 297 298 295 294 294 293
302 302 302 302 302 302 303 303 303 304 304 304 305 305 306 305 317 312 309 310 308 316 300 296 298 300 301 304 304 306 307 308 305 302 297 300 302 300 289 288 298 300 299 299 299 297 294 296 295 295 293 293 294 294
302 301 301 301 302 302 302 302 303 304 304 304 304 304 305 305 306 309 312 307 310 306 302 292 291 296 300 297 294 297 296 300 301 300 294 297 297 297 289 297 297 295 295 295 296 298 297 296 294 293 294 294 292 291
301 301 300 301 301 302 302 303 303 303 304 304 304 304 305 304 300 303 303 306 310 308 296 289 289 289 299 293 293 294 297 291 296 289 291 294 290 288 294 295 292 293 294 293 295 295 294 292 292 292 291 290 289 289
300 301 300 300 300 301 302 302 303 303 304 304 304 300 290 296 303 304 302 300 296 294 295 290 299 294 299 291 289 291 292 289 287 288 291 286 287 291 291 294 294 294 295 294 291 289 290 289 288 288 289 289 289 289
301 301 300 301 301 301 302 302 303 303 303 299 292 289 297 302 299 295 289 289 289 286 289 288 289 289 293 291 289 289 286 287 285 288 288 287 288 291 293 294 295 295 295 293 292 290 290 289 288 288 289 289 289 288
301 301 301 301 301 301 302 302 302 300 298 298 297 299 297 294 289 288 286 285 286 286 287 287 288 290 288 293 289 286 286 286 283 289 284 283 290 291 292 292 293 293 292 289 289 289 289 289 290 289 289 288 288 288
298 300 300 301 301 301 302 302 301 301 300 299 293 287 288 286 285 285 283 285 285 288 288 287 286 289 288 289 285 287 284 284 288 282 283 288 290 292 292 293 292 292 290 288 289 290 290 290 290 288 287 287 286 287
298 299 300 301 300 301 301 301 300 299 296 290 287 284 286 284 286 287 288 288 288 289 289 288 286 288 285 284 285 283 282 284 280 278 281 287 289 289 289 290 289 288 288 287 288 289 289 287 287 287 285 285 284 284
298 299 300 300 300 300 300 298 298 298 293 287 289 283 284 285 287 287 288 289 288 290 289 287 286 289 284 282 283 281 279 278 281 282 286 289 288 288 288 287 288 288 287 286 288 288 286 286 286 286 287 287 287 285
299 300 300 300 299 299 298 298 297 294 289 286 285 283 284 285 284 285 286 286 288 287 287 289 285 284 282 283 280 280 279 278 282 287 289 288 287 288 288 289 288 288 287 287 287 287 287 286 285 287 287 286 285 285
298 296 299 299 297 295 295 294 294 286 285 285 283 285 285 286 287 287 288 287 289 287 285 285 282 281 281 280 279 281 280 284 287 287 288 287 287 288 289 288 287 286 286 287 287 288 287 288 287 285 285 287 287 288
295 298 299 298 297 295 292 292 288 286 282 283 284 284 285 285 285 286 288 288 288 286 285 284 282 279 279 278 280 284 285 287 287 287 287 288 288 289 289 288 288 287 287 287 287 287 287 285 286 288 287 287 285 286
298 298 298 298 297 294 289 287 287 283 282 283 283 284 285 285 284 284 286 287 289 289 286 285 282 280 281 282 285 286 287 287 287 287 287 288 288 287 287 287 286 286 287 287 288 288 289 288 288 288 287 287 284 285
298 296 295 294 295 291 285 285 288 285 283 283 283 284 284 283 283 284 286 288 288 288 285 283 283 285 285 287 287 288 288 288 286 285 285 287 288 287 287 287 288 289 288 288 288 286 287 288 290 289 289 287 285 285
292 293 293 293 289 288 286 284 284 285 284 284 282 285 281 283 282 283 283 286 285 285 283 286 287 289 288 287 288 288 287 287 286 286 286 285 288 288 287 288 288 288 287 288 288 288 285 287 289 288 287 285 285 286
290 293 289 288 285 284 283 284 285 284 284 283 283 284 282 281 280 281 284 282 282 285 287 287 288 288 287 286 287 288 288 287 287 287 285 286 286 287 288 288 288 288 288 288 288 288 288 289 288 287 286 285 285 286
291 289 285 285 282 282 279 284 282 281 280 280 281 280 280 281 280 281 279 281 283 287 288 288 288 288 287 288 287 287 287 286 287 288 288 288 288 289 288 288 289 286 286 288 289 288 287 286 286 286 286 285 285 284
289 284 281 280 281 277 282 279 281 280 280 278 279 275 276 279 278 277 276 279 284 286 285 286 287 286 287 284 285 286 287 288 288 288 289 287 287 288 289 289 289 288 287 288 288 287 287 285 285 285 285 284 284 283
283 279 280 276 279 276 276 276 277 278 275 276 274 275 276 277 276 275 275 281 284 285 286 285 284 285 285 287 287 287 286 287 287 286 289 289 288 287 287 289 289 288 288 284 284 285 285 285 285 285 284 283 283 283
275 278 277 276 276 276 276 273 274 275 275 273 275 275 275 277 275 276 279 284 285 286 286 287 288 286 285 286 285 286 288 288 287 285 287 288 287 285 284 284 284 286 287 286 284 283 284 283 283 282 282 282 282 281
274 275 279 280 279 276 274 274 275 275 272 273 276 273 275 273 274 279 283 282 283 282 283 284 283 283 283 284 285 286 286 286 285 285 286 285 285 284 283 282 282 284 285 285 284 284 282 282 282 282 282 282 282 281
278 279 274 277 277 278 275 275 274 274 277 278 277 273 274 276 277 280 279 278 278 280 282 282 282 280 281 282 282 282 281 283 283 284 284 284 283 283 281 281 281 279 282 283 283 283 283 282 282 281 281 281 281 281
279 279 279 274 274 275 277 277 278 280 281 279 278 278 279 279 274 274 274 274 276 277 276 275 276 277 279 279 280 279 278 278 276 276 277 279 282 277 277 277 278 278 279 279 280 280 281 281 280 280 280 280 279 279
278 280 277 274 273 275 281 282 282 281 281 282 282 280 278 273 271 273 273 272 271 271 272 272 272 273 272 272 273 276 276 275 274 273 272 272 272 274 274 274 274 275 275 276 277 279 279 279 278 278 277 276 275 274
279 279 278 278 277 281 280 275 276 276 278 281 280 281 281 270 270 271 270 271 271 271 270 270 271 272 272 271 271 271 271 272 271 271 271 272 272 272 271 271 272 272 273 274 275 276 275 275 274 273 271 270 269 269
278 277 277 274 278 277 276 276 277 277 279 277 279 274 272 272 267 268 268 269 269 267 266 267 268 269 271 271 271 271 269 270 269 268 268 268 269 268 269 269 269 270 271 272 272 272 271 271 270 269 269 267 266 265
274 274 274 274 275 276 274 273 274 273 274 274 272 271 269 268 263 266 269 269 268 267 266 267 268 269 271 270 269 269 269 269 268 267 266 265 264 264 265 266 266 267 268 269 269 269 268 267 266 265 264 263 263 262
Wind_Speed
5 5 2 6 8 9 8 7 6 6 5 4 3 5 7 8 8 3 3 3 2 3 4 1 4 5 5 4 5 7 5 2 3 3 3 3 2 3 3 2 3 4 2 4 3 4 7 2 1 2 5 6 2 4
8 6 1 5 7 9 9 8 7 6 6 5 3 3 6 7 9 4 2 1 2 3 4 2 3 4 4 2 5 5 2 5 5 4 3 3 3 1 1 4 4 5 6 4 8 7 5 7 7 3 1 4 6 1
11 8 5 1 6 7 9 9 9 7 6 6 4 1 4 6 7 5 2 1 2 3 3 3 3 2 1 3 1 4 1 4 5 4 4 2 3 5 5 7 5 5 6 5 6 11 12 10 5 3 2 2 2 4
10 10 10 8 0 7 8 9 9 9 7 6 5 3 2 5 6 2 2 1 2 4 5 3 2 2 3 2 1 3 9 7 6 2 3 3 3 7 4 6 8 7 6 11 12 15 11 3 3 4 3 4 5 4
10 10 10 9 7 2 8 10 10 10 9 8 6 6 2 2 4 4 3 2 2 1 4 2 1 3 4 1 5 8 12 8 4 3 3 4 3 3 2 1 8 9 12 6 5 3 7 1 3 5 5 5 2 5
9 9 9 10 8 7 3 9 11 11 11 10 8 7 6 3 2 1 1 2 3 2 4 3 3 1 4 2 5 7 6 4 2 4 3 3 3 5 4 4 8 11 8 8 7 7 3 0 4 4 2 3 5 7
9 9 9 9 9 8 6 7 11 12 14 12 11 10 7 3 0 1 1 3 3 1 4 2 2 3 2 3 2 2 1 1 3 3 4 4 4 4 3 5 7 6 2 2 4 7 5 6 2 2 3 5 8 12
7 7 7 7 9 7 7 4 9 13 16 15 13 10 7 9 7 2 2 3 2 5 3 3 2 1 2 2 2 1 2 2 2 1 1 2 2 2 5 6 2 4 6 6 5 2 6 7 4 4 6 9 12 13
6 6 8 8 8 8 6 5 4 13 17 16 14 15 4 1 2 2 6 5 3 1 3 2 6 4 4 2 1 2 1 2 2 1 1 2 3 6 5 5 2 5 6 8 8 8 5 0 4 7 9 12 13 14
5 6 8 8 8 8 6 4 3 10 15 20 5 3 1 2 8 9 3 2 3 2 2 3 2 3 3 3 2 3 0 1 3 2 1 3 3 2 3 3 3 6 11 10 7 4 2 4 7 9 11 10 11 13
4 5 7 7 8 10 5 6 3 12 12 2 2 3 1 4 2 3 2 3 2 1 2 2 2 4 3 2 3 2 2 1 3 3 3 2 4 5 7 9 8 8 7 4 3 2 2 6 8 9 10 11 10 12
7 5 7 8 8 9 3 11 7 3 1 5 4 5 2 2 3 4 4 3 4 5 3 3 2 2 1 1 3 2 1 2 2 2 3 4 3 9 10 11 8 7 6 3 1 4 6 7 8 8 10 11 11 11
8 9 5 7 7 3 7 7 8 9 4 3 5 4 2 1 3 5 6 3 5 4 4 3 3 2 2 2 3 2 4 2 1 3 4 3 7 9 10 8 8 6 2 3 6 7 9 9 8 6 9 9 9 11
5 9 5 5 6 2 5 13 10 5 4 3 1 5 1 3 2 2 2 3 3 3 5 5 3 2 0 3 1 2 2 2 4 5 6 4 10 10 7 6 6 3 1 5 8 9 7 7 8 7 8 8 7 10
2 7 5 3 3 10 9 7 4 1 2 2 1 3 2 3 3 2 1 2 3 4 3 4 3 0 2 3 1 3 4 5 5 4 0 5 8 7 7 5 3 3 4 6 8 7 6 7 8 10 8 7 8 9
1 4 5 4 4 7 6 1 2 2 3 2 3 4 2 2 1 1 2 3 2 3 2 2 3 3 2 3 4 5 4 6 1 1 2 5 5 5 5 4 5 6 7 9 9 9 9 8 8 11 10 9 9 9
8 2 7 9 10 14 13 3 2 5 3 1 3 3 2 3 2 2 1 3 3 2 3 3 5 2 4 3 4 4 5 0 2 4 2 2 3 6 6 5 6 7 9 10 10 9 10 7 6 8 11 11 9 8
2 1 12 13 5 6 4 3 3 3 5 3 2 3 2 2 2 2 2 2 2 2 3 2 4 4 4 4 3 2 3 1 2 1 0 1 4 8 8 10 11 11 11 10 8 8 8 6 8 8 10 10 10 10
6 5 14 10 3 5 2 3 2 2 3 2 3 2 2 3 3 2 1 1 2 1 5 2 2 3 3 3 2 2 2 2 2 4 5 6 7 7 9 10 10 11 11 10 9 8 8 8 8 7 8 8 8 9
9 11 14 8 4 3 4 2 1 3 2 3 2 3 3 2 1 1 1 1 2 2 2 2 3 2 3 2 3 2 2 2 3 6 7 5 6 8 9 9 9 10 9 10 9 6 6 7 6 7 7 8 9 9
11 2 11 6 5 6 4 1 3 2 3 2 2 1 3 1 1 1 1 1 0 2 3 4 4 4 3 1 2 2 4 5 6 5 7 7 6 6 8 8 9 8 8 7 7 7 5 6 7 6 5 6 8 8
3 3 4 3 4 3 4 3 2 2 1 3 3 0 2 2 1 1 1 3 3 4 5 4 5 4 4 5 5 7 7 5 6 7 7 7 6 6 7 7 7 7 7 7 7 6 6 6 5 5 6 7 8 8
10 3 4 3 4 3 3 2 1 3 3 3 2 3 2 2 1 2 3 3 4 5 5 5 5 5 5 5 4 6 5 7 6 5 5 5 6 6 7 7 6 7 8 8 6 6 6 5 6 6 6 7 7 7
3 5 4 4 4 4 1 3 2 3 2 2 2 3 2 1 1 1 3 3 5 2 3 5 3 3 3 3 4 5 5 5 5 5 5 5 7 8 7 8 7 6 8 8 6 5 5 4 5 7 6 7 8 9
6 4 3 5 2 4 4 4 3 2 3 3 3 2 2 2 2 3 4 4 2 3 2 2 2 3 3 3 4 4 4 5 5 7 6 6 7 7 8 7 7 6 5 6 6 5 5 4 5 6 7 8 11 12
6 3 2 3 3 2 4 4 4 4 3 4 4 1 2 3 4 5 3 1 1 1 1 1 2 2 4 4 6 6 6 2 4 7 9 6 5 6 9 9 8 6 3 3 4 5 6 5 8 10 9 9 10 11
5 3 3 2 3 5 4 3 3 2 4 5 4 5 4 4 5 2 1 4 4 5 6 5 5 5 7 8 8 7 6 6 6 8 8 7 7 6 6 7 8 4 4 4 4 4 6 8 9 8 9 8 8 8
3 3 5 5 2 0 4 4 6 7 5 4 5 5 5 6 2 3 5 5 6 6 5 5 5 7 7 7 8 7 7 8 9 8 7 7 5 1 3 3 3 7 5 4 5 6 6 7 7 8 9 8 7 7
2 4 4 4 3 3 4 5 5 4 4 5 5 4 3 3 4 5 5 7 7 6 7 8 7 8 7 7 6 6 7 7 10 12 12 8 3 5 6 6 6 5 5 6 7 6 7 6 6 6 7 6 6 5
3 3 3 4 4 5 2 5 1 1 2 1 1 2 4 4 4 5 6 7 8 7 6 6 6 7 8 8 8 6 6 7 8 7 7 7 7 7 7 7 7 7 7 7 7 7 6 6 5 3 5 4 5 5
2 3 2 3 4 2 1 2 2 2 2 3 1 4 2 6 4 6 9 7 6 6 7 8 7 8 8 8 8 8 6 7 10 10 9 6 6 7 7 8 7 7 7 7 7 6 6 4 4 5 6 7 7 7
1 2 1 3 2 2 2 2 2 2 1 2 1 2 4 3 4 3 6 7 7 8 9 8 7 8 8 6 5 5 6 6 8 8 11 8 7 8 8 7 7 7 7 6 5 4 5 5 5 5 5 7 7 8
0 0 0 2 3 2 2 3 2 3 1 1 3 2 3 3 4 3 3 5 5 6 7 8 8 7 6 4 7 6 7 7 9 9 11 11 10 9 7 6 7 7 7 5 4 5 6 6 6 7 7 7 7 7
Wind_Direction
49 60 83 168 172 176 178 181 182 171 157 126 70 22 11 9 356 332 86 11 337 85 131 218 162 143 140 169 150 135 152 140 85 95 157 191 205 193 215 268 213 243 222 208 205 257 264 84 296 271 329 334 283 263
53 70 153 193 188 184 178 180 186 185 176 156 121 28 13 11 2 330 113 53 343 67 86 19 38 10 7 147 132 172 20 149 153 109 176 137 186 154 238 248 182 254 208 275 194 242 281 294 294 283 198 220 275 355
45 57 64 161 198 200 187 183 184 183 179 169 156 118 11 18 13 7 96 62 79 98 95 174 160 54 33 43 43 133 201 134 157 23 138 149 194 166 183 222 255 248 227 243 279 258 268 301 318 240 316 82 137 225
37 38 44 46 314 208 198 191 184 180 176 170 167 163 28 11 10 11 74 67 59 80 116 154 327 160 354 225 136 49 121 104 103 129 119 145 187 202 211 265 240 254 269 268 274 274 292 271 23 61 162 153 209 247
36 31 24 37 31 276 212 199 190 183 167 168 167 156 130 52 34 63 77 61 30 301 161 142 146 43 10 239 155 138 141 132 138 131 141 199 194 173 190 322 256 251 261 229 251 298 282 337 19 303 197 222 268 297
41 29 21 3 20 19 245 205 193 184 166 174 175 168 174 175 336 243 159 98 17 351 102 144 56 67 28 146 154 159 161 122 151 159 187 228 188 196 183 227 283 277 262 287 288 162 195 51 122 180 249 319 316 308
42 29 20 5 352 18 9 221 196 180 167 173 174 175 189 181 357 285 7 45 360 22 87 104 211 71 25 114 69 143 133 158 170 200 195 212 197 195 180 242 261 258 264 142 122 126 141 168 170 151 288 286 288 297
36 27 15 6 349 354 7 348 202 182 174 172 177 156 140 106 106 198 66 83 36 91 64 147 214 271 212 132 145 339 139 216 178 225 95 202 133 217 243 249 101 78 85 78 87 104 91 130 160 249 286 311 307 304
21 1 353 356 354 335 348 8 247 194 179 167 141 128 108 143 142 162 122 87 49 20 176 147 158 207 151 94 93 121 166 161 95 208 201 189 175 217 224 186 137 164 192 152 142 132 147 261 323 320 316 311 311 314
351 338 343 344 356 344 323 20 313 193 171 145 132 134 231 211 123 142 20 103 17 0 55 174 146 140 205 148 141 131 347 186 205 148 219 206 242 136 160 131 127 146 151 154 151 189 233 306 314 309 303 306 311 315
333 317 324 332 337 345 321 44 91 140 140 78 83 90 264 128 67 21 126 161 166 90 183 122 198 139 345 154 124 13 159 153 222 127 254 209 234 180 165 155 139 143 144 137 94 67 295 292 297 302 306 313 308 304
340 306 324 331 338 350 71 113 35 46 36 96 115 100 97 69 51 136 167 141 196 178 167 152 170 95 99 92 114 132 169 175 207 121 230 236 168 146 152 153 155 153 143 119 278 293 297 294 297 304 305 305 303 300
6 325 313 315 313 351 124 99 80 98 21 37 48 78 191 132 171 183 172 149 154 162 169 161 103 91 115 57 82 179 184 176 163 199 234 249 141 160 166 166 162 159 160 289 296 290 289 291 300 292 292 287 286 296
352 322 282 304 313 160 120 110 103 73 48 70 130 103 54 99 32 55 1 74 72 95 106 88 80 72 58 85 95 163 65 224 219 227 225 168 173 163 153 146 152 178 303 282 287 286 276 278 279 271 253 262 273 287
348 300 256 290 211 89 73 37 98 66 86 66 347 75 67 93 74 65 66 99 56 111 105 102 83 250 98 109 75 128 172 230 238 243 67 154 149 152 154 165 195 259 259 265 287 285 264 268 271 281 276 265 269 273
247 245 210 221 207 91 59 218 66 85 36 79 88 109 101 96 116 100 76 81 73 108 81 60 127 170 117 126 171 200 205 227 183 182 112 133 150 177 194 214 267 283 287 289 285 276 272 267 268 287 296 283 271 262
161 245 188 144 113 80 37 60 35 61 105 112 73 51 38 32 111 112 122 126 132 137 158 170 183 131 120 176 208 196 225 336 138 139 142 164 209 205 218 255 260 271 278 279 274 271 274 280 279 286 291 309 308 295
157 267 167 149 141 59 28 23 90 37 62 60 79 107 78 25 96 97 90 113 131 150 175 160 133 182 199 199 201 200 217 201 204 171 152 239 247 249 261 282 291 284 277 272 262 275 278 271 274 282 303 308 310 304
176 184 181 160 126 94 69 52 357 99 66 75 93 77 74 84 57 31 42 63 36 86 129 158 174 204 204 215 217 147 166 216 257 272 280 274 273 275 276 278 276 274 270 273 276 277 283 276 271 292 295 302 300 302
128 117 94 77 31 101 96 74 323 103 142 110 115 119 78 77 99 106 131 148 151 183 187 212 228 202 205 200 205 204 177 212 265 284 279 270 254 262 259 265 269 280 285 282 274 253 266 264 263 279 286 301 302 293
71 55 55 64 40 42 71 86 82 45 116 96 96 124 82 95 94 123 126 20 229 219 229 221 220 237 202 220 229 236 250 246 250 249 280 287 289 276 280 284 283 280 273 270 267 273 251 263 288 295 290 287 293 284
114 84 95 49 81 59 75 17 50 96 96 94 137 72 121 147 148 162 94 211 229 235 225 231 238 249 241 240 246 227 248 258 254 260 257 268 273 273 267 264 265 259 260 254 259 254 260 278 283 277 281 285 291 288
113 105 74 93 102 59 82 266 109 27 127 121 168 150 137 143 100 310 238 238 255 243 244 253 264 254 259 277 265 264 248 244 253 251 258 258 265 268 269 271 260 257 268 267 260 254 263 280 278 266 283 288 291 300
62 58 60 64 65 101 137 53 84 98 102 105 161 163 161 115 102 235 260 250 249 259 230 239 247 272 258 244 253 258 238 208 235 253 251 264 278 284 283 278 279 263 256 268 254 260 270 267 272 284 277 292 296 291
75 25 65 74 80 120 122 126 113 152 136 135 167 205 158 178 203 221 240 253 232 248 240 203 213 230 267 288 281 271 205 221 247 275 279 263 279 290 290 289 289 281 277 247 250 259 265 264 273 287 297 295 301 309
79 43 49 121 127 155 144 144 168 158 147 157 218 75 192 212 233 238 217 299 279 345 44 9 355 318 297 271 291 302 308 304 268 275 290 300 282 284 291 295 299 299 217 248 274 278 283 296 298 299 297 301 311 314
113 123 104 44 92 120 110 83 81 162 175 195 184 170 184 218 235 241 58 32 12 12 347 353 343 332 325 322 321 320 315 298 272 282 304 296 282 268 260 275 290 333 330 285 275 278 292 297 296 297 304 307 307 317
91 142 152 155 102 336 162 183 177 193 191 167 156 186 202 211 212 52 32 10 347 331 336 5 16 1 334 333 326 321 322 323 307 283 261 253 242 145 16 350 344 331 324 332 319 300 290 292 305 306 302 303 313 324
100 136 127 143 153 209 225 200 206 208 162 175 193 202 216 74 38 2 5 354 349 2 7 357 355 346 338 339 339 349 356 352 339 328 317 306 284 57 3 351 344 343 337 328 321 317 321 326 329 314 318 322 338 345
135 197 128 149 187 222 243 194 229 83 199 251 310 142 126 95 54 27 21 18 16 11 358 349 345 354 350 345 341 353 41 22 18 3 346 359 354 340 345 347 344 342 333 328 322 317 332 340 335 350 2 18 9 16
97 174 177 190 239 235 30 349 263 232 230 230 191 254 9 120 119 48 30 15 14 16 15 11 10 15 12 21 9 358 359 20 3 1 357 344 344 345 345 338 335 328 324 324 325 331 337 343 10 25 40 46 41 37
192 216 244 235 251 77 354 334 335 281 213 245 197 106 137 122 95 71 16 360 19 19 11 360 358 2 12 10 19 24 2 346 353 353 354 345 340 339 332 333 330 330 333 335 341 357 14 36 47 49 60 54 47 42
251 290 248 272 284 299 54 312 24 320 245 5 62 62 53 50 89 55 32 17 11 8 350 340 329 315 317 15 17 4 359 354 348 346 349 346 346 342 330 337 332 333 333 346 8 25 41 55 62 64 62 57 50 42